This is the latest recevied weather packets stored in our database for station/object K1WJY. If no packets are shown the sender has not sent any weather packets the latest 10 day(s).
| Time | Temp. | Humidity | Pressure | Rain* | Wind** | Luminosity | Snow |
|---|---|---|---|---|---|---|---|
| 1787606914 | 23.33° C | 75% | 1015.3 hPa | 0 mm | - | 73 W/m² | - |
| 1787606612 | 23.33° C | 74% | 1015.1 hPa | 0 mm | - | 133 W/m² | - |
| 1787606307 | 23.89° C | 73% | 1015.5 hPa | 0 mm | - | 121 W/m² | - |
| 1787606002 | 23.89° C | 73% | 1015.2 hPa | 0 mm | - | 133 W/m² | - |
| 1787605701 | 23.89° C | 73% | 1015.3 hPa | 0 mm | - | 110 W/m² | - |
| 1787605396 | 23.89° C | 72% | 1015.3 hPa | 0 mm | - | 182 W/m² | - |
| 1787605092 | 24.44° C | 71% | 1015.3 hPa | 0 mm | - | 241 W/m² | - |
| 1787604791 | 23.89° C | 71% | 1015.6 hPa | 0 mm | - | 291 W/m² | - |
| 1787604487 | 24.44° C | 71% | 1015.2 hPa | 0 mm | - | 274 W/m² | - |
| 1787604186 | 24.44° C | 70% | 1015.4 hPa | 0 mm | - | 314 W/m² | - |
| 1787603882 | 25° C | 70% | 1015.3 hPa | 0 mm | - | 323 W/m² | - |
| 1787603581 | 24.44° C | 70% | 1015.4 hPa | 0 mm | - | 338 W/m² | - |
| 1787603277 | 24.44° C | 70% | 1015.3 hPa | 0 mm | - | 353 W/m² | - |
| 1787602973 | 24.44° C | 70% | 1015.1 hPa | 0 mm | - | 372 W/m² | - |
| 1787602668 | 24.44° C | 70% | 1015.3 hPa | 0 mm | - | 381 W/m² | - |
| 1787602363 | 24.44° C | 71% | 1015.1 hPa | 0 mm | - | 407 W/m² | - |
| 1787602058 | 24.44° C | 72% | 1015.4 hPa | 0 mm | - | 427 W/m² | - |
| 1787601757 | 25° C | 73% | 1014.9 hPa | 0 mm | - | 456 W/m² | - |
| 1787601452 | 24.44° C | 75% | 1015 hPa | 0 mm | - | 490 W/m² | - |
| 1787601152 | 25° C | 75% | 1015.3 hPa | 0 mm | - | 355 W/m² | - |
| 1787600851 | 25° C | 75% | 1015.1 hPa | 0 mm | - | 451 W/m² | - |
| 1787600547 | 25° C | 75% | 1015.2 hPa | 0 mm | - | 447 W/m² | - |
| 1787600243 | 24.44° C | 77% | 1015.4 hPa | 0 mm | - | 475 W/m² | - |
| 1787599939 | 25° C | 76% | 1015.2 hPa | 0 mm | - | 396 W/m² | - |
| 1787599635 | 25° C | 77% | 1015.4 hPa | 0 mm | - | 454 W/m² | - |
* Rain latest hour (hover to see other rain measurements)
** Current wind speed in m/s (hover to see current wind gust speed)